FW1304 Weather Reports


Display with metric or nautical units.
time (UTC)temp
F
wind
direction
speed
MPH
gust
MPH
rain 1hr
in
rain 24hr
in
rain mn
in
humidity
%
barometer
mb
20260831022328 77 219 0.0 0.0 0.00 0.00 0.00 85 1006.1
20260831021824 77 118 0.0 0.0 0.00 0.00 0.00 85 1006.1
20260831021326 77 118 0.0 0.0 0.00 0.00 0.00 85 1006.1
20260831020842 78 117 0.0 0.0 0.00 0.00 0.00 84 1006.0
20260831020328 78 117 0.0 0.0 0.00 0.00 0.00 84 1005.9
20260831015829 78 115 327.0 327.0 0.00 0.00 0.00 84 1005.4
20260831015324 78 105 0.0 0.0 0.00 0.00 0.00 83 1005.9
20260831014831 78 144 0.0 0.0 0.00 0.00 0.00 83 1005.9
20260831014359 78 88 0.0 0.0 0.00 0.00 0.00 83 1005.9
20260831013826 79 126 0.0 0.0 0.00 0.00 0.00 83 1005.9
20260831013341 79 127 0.0 0.0 0.00 0.00 0.00 82 1005.8
20260831012823 79 101 0.0 0.0 0.00 0.00 0.00 82 1005.8
20260831012339 79 107 0.0 0.0 0.00 0.00 0.00 82 1005.8
20260831011826 79 110 0.0 0.0 0.00 0.00 0.00 81 1005.8
20260831011326 79 105 0.0 0.0 0.00 0.00 0.00 81 1005.8
20260831010843 79 92 0.0 0.0 0.00 0.00 0.00 81 1005.7
20260831010327 80 88 0.0 0.0 0.00 0.00 0.00 80 1005.6
20260831005822 80 119 0.0 0.0 0.00 0.00 0.00 80 1005.6
20260831005337 80 129 0.0 0.0 0.00 0.00 0.00 80 1005.7
20260831004832 80 109 0.0 0.0 0.00 0.00 0.00 79 1005.7
20260831004314 80 113 0.0 1.0 0.00 0.00 0.00 79 1005.5
20260831003822 81 98 0.0 1.0 0.00 0.00 0.00 79 1005.6
20260831003337 81 113 0.0 2.0 0.00 0.00 0.00 78 1005.6
20260831002817 81 109 0.0 1.0 0.00 0.00 0.00 78 1005.6
20260831002333 81 111 0.0 1.0 0.00 0.00 0.00 78 1005.7
20260831001845 81 88 0.0 1.0 0.00 0.00 0.00 78 1005.7
20260831001326 81 126 0.0 0.0 0.00 0.00 0.00 78 1005.7
20260831000843 82 116 0.0 1.0 0.00 0.00 0.00 77 1005.6
20260831000325 82 119 0.0 1.0 0.00 0.00 0.00 77 1005.7
20260830235826 82 113 0.0 1.0 0.00 0.00 0.00 77 1005.6
20260830235341 82 141 0.0 1.0 0.00 0.00 0.00 77 1005.6
20260830234827 82 78 0.0 2.0 0.00 0.00 0.00 76 1005.5
20260830234328 82 78 0.0 2.0 0.00 0.00 0.00 76 1005.5
20260830233824 82 104 0.0 2.0 0.00 0.00 0.00 75 1005.5
20260830233329 83 123 0.0 2.0 0.00 0.00 0.00 76 1005.5
20260830232859 83 61 0.0 1.0 0.00 0.00 0.00 75 1005.7
20260830232324 83 117 0.0 2.0 0.00 0.00 0.00 75 1005.8
20260830231819 83 101 0.0 2.0 0.00 0.00 0.00 75 1005.6
20260830231323 83 151 0.0 2.0 0.00 0.00 0.00 75 1005.7
20260830230829 83 129 0.0 2.0 0.00 0.00 0.00 75 1005.6
20260830230323 83 138 0.0 1.0 0.00 0.00 0.00 75 1005.6
20260830225826 83 84 0.0 4.0 0.00 0.00 0.00 74 1005.8
20260830225343 83 113 0.0 4.0 0.00 0.00 0.00 75 1005.7
20260830224845 83 140 0.0 1.0 0.00 0.00 0.00 75 1005.5
20260830224325 83 163 0.0 2.0 0.00 0.00 0.00 75 1005.5
20260830223831 83 93 0.0 2.0 0.00 0.00 0.00 75 1005.5
20260830223325 83 155 0.0 0.0 0.00 0.00 0.00 76 1005.6
20260830222826 83 105 0.0 2.0 0.00 0.00 0.00 76 1005.7
20260830222341 83 102 0.0 2.0 0.00 0.00 0.00 75 1005.6
20260830221855 83 144 0.0 1.0 0.00 0.00 0.00 75 1005.7
20260830221335 83 114 0.0 1.0 0.00 0.00 0.00 75 1005.7
20260830220821 83 93 0.0 1.0 0.00 0.00 0.00 75 1005.8
20260830220337 83 132 0.0 2.0 0.00 0.00 0.00 75 1005.9
20260830215816 83 98 0.0 2.0 0.00 0.00 0.00 76 1005.9
20260830215351 83 146 0.0 4.0 0.00 0.00 0.00 75 1005.9
20260830214841 83 91 0.0 4.0 0.00 0.00 0.00 74 1005.9
20260830214319 83 113 327.0 327.0 0.00 0.00 0.00 75 1005.6
20260830213837 83 108 0.0 2.0 0.00 0.00 0.00 74 1006.1
20260830213325 83 108 327.0 327.0 0.00 0.00 0.00 74 1005.7
20260830212858 83 134 0.0 2.0 0.00 0.00 0.00 75 1006.1
20260830212322 83 130 0.0 2.0 0.00 0.00 0.00 76 1006.1
20260830211817 82 66 0.0 2.0 0.00 0.00 0.00 76 1006.2
20260830211319 82 117 0.0 4.0 0.00 0.00 0.00 77 1006.2
20260830210833 82 173 1.0 4.0 0.00 0.00 0.00 77 1006.3
20260830210320 82 117 0.0 1.0 0.00 0.00 0.00 76 1006.5
20260830205824 82 107 0.0 2.0 0.00 0.00 0.00 75 1006.5
20260830205339 82 121 0.0 2.0 0.00 0.00 0.00 76 1006.5
20260830204826 82 72 0.0 1.0 0.00 0.00 0.00 75 1006.5
20260830204328 82 100 0.0 1.0 0.00 0.00 0.00 75 1006.5
20260830203823 82 99 0.0 1.0 0.00 0.00 0.00 77 1006.4
20260830203327 81 107 0.0 1.0 0.00 0.00 0.00 77 1006.4
20260830202845 81 130 0.0 4.0 0.00 0.00 0.00 78 1006.4
20260830202339 80 116 0.0 5.0 0.00 0.00 0.00 77 1006.4
20260830201821 80 67 0.0 5.0 0.00 0.00 0.00 78 1006.3
20260830201315 80 98 0.0 4.0 0.00 0.00 0.00 78 1006.2
20260830200850 80 53 0.0 4.0 0.00 0.00 0.00 79 1006.2
20260830200325 80 119 0.0 4.0 0.00 0.00 0.00 79 1006.2
20260830195839 79 124 0.0 4.0 0.00 0.00 0.00 79 1006.3
20260830195316 79 126 0.0 4.0 0.00 0.00 0.00 80 1006.4
20260830194832 79 89 0.0 5.0 0.00 0.00 0.00 79 1006.2
20260830194334 79 46 0.0 4.0 0.00 0.00 0.00 80 1006.4
20260830193821 79 105 0.0 4.0 0.00 0.00 0.00 79 1006.8
20260830193337 79 130 0.0 2.0 0.00 0.00 0.00 80 1006.9
20260830192837 79 90 0.0 2.0 0.00 0.00 0.00 81 1007.1
20260830192324 78 98 0.0 2.0 0.00 0.00 0.00 81 1007.1
20260830191840 78 105 0.0 6.0 0.00 0.00 0.00 81 1007.0
20260830191322 78 94 0.0 2.0 0.00 0.00 0.00 82 1007.1
20260830190834 78 114 0.0 1.0 0.00 0.00 0.00 82 1007.3
20260830190322 78 95 0.0 2.0 0.00 0.00 0.00 83 1007.3
20260830185823 77 48 0.0 2.0 0.00 0.00 0.00 83 1007.4
20260830185320 77 99 0.0 0.0 0.00 0.00 0.00 84 1007.6
20260830184820 76 65 0.0 0.0 0.00 0.00 0.00 84 1007.6
20260830184323 76 25 0.0 0.0 0.00 0.00 0.00 84 1007.6
20260830183819 76 106 0.0 0.0 0.00 0.00 0.00 84 1007.8
20260830183334 76 134 0.0 0.0 0.00 0.00 0.00 85 1007.9
20260830182833 76 105 0.0 0.0 0.00 0.00 0.00 85 1007.8
20260830182318 75 117 0.0 0.0 0.00 0.00 0.00 85 1007.9
20260830181834 75 83 0.0 1.0 0.00 0.00 0.00 85 1007.8
20260830181336 75 126 0.0 1.0 0.00 0.00 0.00 85 1007.8
20260830180851 75 69 0.0 0.0 0.00 0.00 0.00 86 1007.7
20260830180316 75 90 0.0 1.0 0.00 0.00 0.00 86 1007.8
20260830175836 74 123 0.0 0.0 0.00 0.00 0.00 86 1007.8
20260830175341 74 61 0.0 0.0 0.00 0.00 0.00 86 1007.9
20260830174826 74 111 0.0 0.0 0.00 0.00 0.00 86 1007.8
20260830174322 74 142 0.0 0.0 0.00 0.00 0.00 86 1007.8
20260830173837 74 141 0.0 1.0 0.00 0.00 0.00 86 1007.9
20260830173323 74 113 0.0 1.0 0.00 0.00 0.00 86 1008.0
20260830172825 74 98 0.0 0.0 0.00 0.00 0.00 86 1008.0
20260830172320 74 111 0.0 1.0 0.00 0.00 0.00 86 1008.0
20260830171835 74 69 0.0 1.0 0.00 0.00 0.00 86 1007.9
20260830171337 74 108 0.0 0.0 0.00 0.00 0.00 86 1007.9
20260830170826 73 89 0.0 0.0 0.00 0.00 0.00 86 1007.9
20260830170313 73 61 0.0 2.0 0.00 0.00 0.00 86 1007.9
20260830165815 73 102 0.0 2.0 0.00 0.00 0.00 86 1008.0
20260830165401 73 38 0.0 2.0 0.00 0.00 0.00 86 1007.7
20260830164846 73 71 0.0 1.0 0.00 0.00 0.00 86 1007.6
20260830164324 73 58 0.0 1.0 0.00 0.00 0.00 86 1007.5
20260830163820 73 141 0.0 1.0 0.00 0.00 0.00 86 1007.6
20260830163336 73 87 0.0 1.0 0.00 0.00 0.00 87 1007.5
20260830162816 73 44 0.0 2.0 0.00 0.00 0.00 87 1007.5
20260830162319 72 48 0.0 2.0 0.00 0.00 0.00 87 1007.6
20260830161829 72 61 0.0 1.0 0.00 0.00 0.00 87 1007.5
20260830161330 72 103 0.0 1.0 0.00 0.00 0.00 87 1007.5
20260830160825 72 17 0.0 1.0 0.00 0.00 0.00 87 1007.5
20260830160330 72 59 0.0 7.0 0.00 0.00 0.00 87 1007.7
20260830155813 72 102 1.0 7.0 0.00 0.00 0.00 87 1007.6
20260830155327 72 53 0.0 4.0 0.00 0.00 0.00 87 1007.5
20260830154903 72 124 0.0 2.0 0.00 0.00 0.00 87 1007.6
20260830154324 72 37 0.0 7.0 0.00 0.00 0.00 87 1007.7
20260830153833 72 42 0.0 7.0 0.00 0.00 0.00 87 1007.6
20260830153348 72 49 0.0 1.0 0.00 0.00 0.00 87 1007.9
20260830152823 71 85 0.0 2.0 0.00 0.00 0.00 88 1007.8
20260830152319 71 64 0.0 2.0 0.00 0.00 0.00 88 1007.7
20260830151837 71 58 0.0 5.0 0.00 0.00 0.00 88 1007.6
20260830151337 71 68 0.0 5.0 0.00 0.00 0.00 88 1007.5
20260830150818 71 78 0.0 5.0 0.00 0.00 0.00 88 1007.4
20260830150314 70 86 0.0 2.0 0.00 0.00 0.00 88 1007.5
20260830145832 70 103 0.0 1.0 0.00 0.00 0.00 88 1007.6
20260830145317 70 87 0.0 0.0 0.00 0.00 0.00 88 1007.7
20260830144832 70 69 0.0 0.0 0.00 0.00 0.00 88 1007.7
20260830144314 70 64 0.0 0.0 0.00 0.00 0.00 88 1007.6
20260830143850 69 144 0.0 1.0 0.00 0.00 0.00 88 1007.7
20260830143324 69 97 0.0 1.0 0.00 0.00 0.00 88 1007.8
20260830142825 69 96 0.0 1.0 0.00 0.00 0.00 88 1007.8
20260830142338 69 86 0.0 0.0 0.00 0.00 0.00 88 1007.9
20260830141825 69 107 0.0 0.0 0.00 0.00 0.00 88 1007.9
20260830141328 68 83 0.0 0.0 0.00 0.00 0.00 88 1007.8
20260830140903 68 134 0.0 2.0 0.00 0.00 0.00 88 1007.8
20260830140331 68 123 0.0 2.0 0.00 0.00 0.00 88 1007.8
20260830135813 68 67 0.0 1.0 0.00 0.00 0.00 88 1007.6
20260830135321 68 88 0.0 1.0 0.00 0.00 0.00 88 1007.6
20260830134817 68 71 0.0 1.0 0.00 0.00 0.00 88 1007.8
20260830134338 68 55 0.0 1.0 0.00 0.00 0.00 88 1007.7
20260830133833 68 96 0.0 0.0 0.00 0.00 0.00 88 1007.6
20260830133347 67 109 0.0 1.0 0.00 0.00 0.00 88 1007.5
20260830132822 67 105 0.0 1.0 0.00 0.00 0.00 88 1007.7
20260830132337 67 113 0.0 2.0 0.00 0.00 0.00 88 1007.8
20260830131825 67 5 0.0 2.0 0.00 0.00 0.00 88 1007.5
20260830131321 67 88 0.0 1.0 0.00 0.02 0.00 88 1007.7
20260830130816 67 61 0.0 0.0 0.00 0.02 0.00 88 1007.8
20260830130331 67 23 0.0 2.0 0.00 0.02 0.00 88 1007.8
20260830125833 67 42 0.0 5.0 0.00 0.02 0.00 88 1007.7
20260830125348 67 43 0.0 1.0 0.00 0.02 0.00 88 1007.7
20260830124841 67 85 0.0 1.0 0.00 0.02 0.00 88 1007.7
20260830124325 67 35 0.0 0.0 0.00 0.02 0.00 88 1007.6
20260830123828 67 109 0.0 0.0 0.00 0.02 0.00 88 1007.5
20260830123322 67 110 0.0 0.0 0.00 0.02 0.00 88 1007.6
20260830122825 67 78 0.0 0.0 0.00 0.02 0.00 88 1007.4
20260830122329 67 84 0.0 0.0 0.00 0.02 0.00 88 1007.7
20260830121845 67 81 0.0 0.0 0.00 0.02 0.00 88 1007.9
20260830121324 67 79 0.0 0.0 0.00 0.11 0.00 88 1007.9
20260830120840 67 74 0.0 0.0 0.00 0.11 0.00 88 1007.7
20260830120335 67 105 0.0 0.0 0.00 0.11 0.00 88 1007.5
20260830115815 67 63 0.0 2.0 0.00 0.11 0.00 88 1007.1
20260830115332 67 92 0.0 2.0 0.00 0.11 0.00 88 1007.0
20260830114833 67 87 0.0 0.0 0.00 0.11 0.00 88 1007.0
20260830114315 67 53 0.0 0.0 0.00 0.11 0.00 88 1007.1
20260830113830 67 92 0.0 0.0 0.00 0.11 0.00 88 1007.1
20260830113317 67 96 0.0 0.0 0.00 0.11 0.00 88 1007.0
20260830112825 67 87 0.0 0.0 0.00 0.11 0.00 88 1007.1
20260830112327 67 93 0.0 0.0 0.00 0.11 0.00 88 1007.2
20260830111844 67 108 0.0 0.0 0.00 0.11 0.00 88 1007.4
20260830111346 67 107 0.0 0.0 0.00 0.17 0.00 88 1007.4
20260830110900 67 107 0.0 0.0 0.00 0.17 0.00 88 1007.5
20260830110326 67 111 0.0 0.0 0.00 0.17 0.00 88 1007.4
20260830105828 67 115 0.0 0.0 0.00 0.17 0.00 88 1007.4
20260830105344 67 116 0.0 0.0 0.00 0.17 0.00 88 1007.5
20260830104841 67 119 0.0 0.0 0.00 0.17 0.00 88 1007.5
20260830104342 67 119 0.0 0.0 0.00 0.17 0.00 88 1007.4
20260830103827 67 124 0.0 0.0 0.00 0.17 0.00 88 1007.4
20260830103323 67 121 0.0 0.0 0.00 0.17 0.00 88 1007.4
20260830102824 67 121 0.0 0.0 0.00 0.17 0.00 88 1007.4
20260830102340 67 105 0.0 0.0 0.00 0.17 0.00 88 1007.5
20260830101828 67 103 0.0 0.0 0.00 0.17 0.00 88 1007.4
20260830101319 67 108 0.0 0.0 0.00 0.18 0.00 88 1007.4
20260830100816 67 107 0.0 0.0 0.00 0.18 0.00 88 1007.4
20260830100322 67 109 0.0 0.0 0.00 0.18 0.00 88 1007.4
20260830095824 67 109 0.0 0.0 0.00 0.18 0.00 88 1007.5
20260830095330 67 110 0.0 0.0 0.00 0.18 0.00 88 1007.4
20260830094846 67 109 0.0 0.0 0.00 0.18 0.00 88 1007.3
20260830094320 67 103 0.0 0.0 0.00 0.18 0.00 88 1007.1
20260830093816 67 88 0.0 0.0 0.00 0.18 0.00 88 1007.0
20260830093329 67 97 0.0 0.0 0.00 0.18 0.00 88 1007.0
20260830092830 67 118 0.0 0.0 0.00 0.18 0.00 88 1006.9
20260830092318 67 114 0.0 0.0 0.00 0.18 0.00 88 1007.0
20260830091853 67 115 0.0 0.0 0.00 0.18 0.00 88 1007.1
20260830091316 67 115 0.0 0.0 0.00 0.18 0.00 88 1007.1
20260830090830 67 77 0.0 0.0 0.00 0.18 0.00 88 1007.0
20260830090332 67 121 0.0 0.0 0.00 0.18 0.00 88 1007.0
20260830085814 68 140 0.0 0.0 0.00 0.18 0.00 88 1007.1
20260830085325 68 140 0.0 0.0 0.00 0.18 0.00 88 1007.1
20260830084840 68 140 0.0 0.0 0.00 0.18 0.00 88 1007.2
20260830084321 68 141 0.0 0.0 0.00 0.18 0.00 88 1007.3
20260830083829 68 141 0.0 0.0 0.00 0.18 0.00 88 1007.3
20260830083323 68 141 0.0 0.0 0.00 0.18 0.00 88 1007.4
20260830082828 68 121 0.0 0.0 0.00 0.18 0.00 88 1007.3
20260830082333 68 111 0.0 0.0 0.00 0.18 0.00 88 1007.3
20260830081827 68 96 0.0 0.0 0.00 0.18 0.00 88 1007.3
20260830081330 68 90 0.0 0.0 0.00 0.19 0.00 88 1007.2
20260830080818 68 104 0.0 0.0 0.00 0.19 0.00 88 1007.4
20260830080335 68 59 0.0 0.0 0.00 0.19 0.00 88 1007.5
20260830075816 68 132 0.0 0.0 0.00 0.19 0.00 88 1007.7
20260830075351 68 134 0.0 0.0 0.00 0.19 0.00 88 1007.6
20260830074816 68 138 0.0 0.0 0.00 0.19 0.00 88 1007.3
20260830074342 68 105 0.0 0.0 0.00 0.19 0.00 88 1007.3
20260830073837 68 102 0.0 0.0 0.00 0.19 0.00 88 1007.7
20260830073323 68 103 0.0 0.0 0.00 0.19 0.00 88 1007.9
20260830072827 68 107 0.0 0.0 0.00 0.19 0.00 88 1007.8
20260830072341 68 105 0.0 0.0 0.00 0.19 0.00 88 1007.7
20260830071829 68 108 0.0 0.0 0.00 0.19 0.00 88 1007.9
20260830071358 68 85 0.0 0.0 0.00 0.19 0.00 88 1007.8
20260830070825 68 81 0.0 0.0 0.00 0.19 0.00 88 1007.7
20260830070320 68 137 0.0 0.0 0.00 0.19 0.00 88 1007.8
20260830065821 69 85 0.0 0.0 0.00 0.19 0.00 88 1007.9
20260830065337 69 100 0.0 0.0 0.00 0.19 0.00 88 1007.9
20260830064846 69 99 0.0 0.0 0.00 0.19 0.00 88 1007.8
20260830064330 69 95 0.0 0.0 0.00 0.19 0.00 88 1007.7
20260830063814 69 90 0.0 0.0 0.00 0.19 0.00 88 1007.9
20260830063330 69 106 0.0 0.0 0.00 0.19 0.00 88 1007.9
20260830062830 69 78 0.0 0.0 0.00 0.19 0.00 88 1007.8
20260830062318 69 65 0.0 0.0 0.00 0.19 0.00 88 1007.9
20260830061824 69 115 0.0 0.0 0.00 0.20 0.00 88 1007.9
20260830061316 69 105 0.0 0.0 0.00 0.20 0.19 88 1007.9
20260830060814 69 62 0.0 0.0 0.00 0.20 0.19 88 1007.9
20260830060320 69 115 0.0 0.0 0.00 0.20 0.19 88 1008.0
20260830055824 69 89 0.0 0.0 0.00 0.20 0.19 88 1008.0
20260830055319 69 76 0.0 0.0 0.00 0.20 0.19 88 1008.1
20260830054826 69 61 327.0 327.0 0.00 0.00 0.19 88 1007.8
20260830054339 69 71 0.0 0.0 0.00 0.20 0.19 88 1008.3
20260830053848 69 93 0.0 0.0 0.00 0.20 0.19 88 1008.2
20260830053321 69 98 0.0 0.0 0.00 0.20 0.19 88 1008.2
20260830052822 69 78 0.0 0.0 0.00 0.20 0.19 88 1008.3
20260830052329 69 119 0.0 0.0 0.00 0.20 0.19 88 1008.2
20260830051825 70 101 0.0 0.0 0.00 0.20 0.19 88 1008.2
20260830051327 70 125 0.0 0.0 0.00 0.20 0.19 88 1008.3
20260830050843 70 117 0.0 0.0 0.00 0.20 0.19 88 1008.3
20260830050330 70 109 0.0 0.0 0.00 0.20 0.19 88 1008.3
20260830045830 70 92 0.0 0.0 0.00 0.20 0.19 88 1008.4
20260830045324 70 113 0.0 0.0 0.00 0.20 0.19 88 1008.4
20260830044857 70 115 0.0 0.0 0.00 0.20 0.19 88 1008.5
20260830044338 70 107 0.0 0.0 0.00 0.20 0.19 88 1008.4
20260830043823 70 117 0.0 0.0 0.00 0.20 0.19 88 1008.5
20260830043320 70 119 0.0 0.0 0.00 0.20 0.19 87 1008.5
20260830042822 70 121 0.0 0.0 0.00 0.20 0.19 87 1008.5
20260830042336 70 97 0.0 0.0 0.00 0.20 0.19 87 1008.5
20260830041326 70 99 0.0 0.0 0.00 0.20 0.19 87 1008.7
20260830040841 70 84 0.0 0.0 0.00 0.20 0.19 87 1008.7
20260830040326 70 113 0.0 0.0 0.00 0.20 0.19 87 1008.7
20260830035829 70 119 0.0 0.0 0.00 0.20 0.19 87 1008.7
20260830035345 71 115 0.0 0.0 0.00 0.20 0.19 87 1008.8
20260830034830 71 101 0.0 0.0 0.00 0.20 0.19 87 1008.9
20260830034340 71 101 0.0 0.0 0.00 0.20 0.19 87 1008.8
20260830033828 71 109 0.0 0.0 0.00 0.20 0.19 87 1008.6
20260830033315 71 111 0.0 0.0 0.00 0.20 0.19 87 1008.6
20260830032814 71 123 0.0 0.0 0.00 0.20 0.19 87 1008.5
20260830032328 71 131 0.0 0.0 0.00 0.20 0.19 87 1008.6
20260830031822 71 111 0.0 0.0 0.00 0.20 0.19 87 1008.7
20260830031344 71 88 0.0 0.0 0.00 0.20 0.19 87 1008.7
20260830030821 71 89 0.0 0.0 0.00 0.20 0.19 87 1008.8
20260830030328 71 79 0.0 0.0 0.00 0.20 0.19 87 1008.8
20260830025831 71 96 0.0 0.0 0.00 0.20 0.19 86 1008.9
20260830025317 71 113 0.0 0.0 0.00 0.20 0.19 86 1008.7
20260830024831 71 82 0.0 1.0 0.00 0.20 0.19 86 1008.8
20260830024332 71 116 0.0 1.0 0.00 0.20 0.19 86 1008.8
20260830023848 72 102 0.0 0.0 0.00 0.20 0.19 86 1008.6
20260830023342 72 122 0.0 0.0 0.00 0.20 0.19 86 1008.5
20260830022842 72 144 0.0 0.0 0.00 0.20 0.19 86 1008.3